Lexington Weather

Lexington, Massachusetts, USA

46°F
9/19/2020 8:50am 
  • Lexington Conditions: Clear
  • Temperature: 46.2°F / 7.9°CWarmer 2.9°F than last hour.
  • Dew Point: 36.3°FIncreased 0.7°Fsince last hour.
  • Relative Humidity: 68%Decreased 6.0% since last hour.
  • Wind: Wind from ENE ENE 1 mph, 10-min avg: 1 mph, gust: 2 mph
  • Barometer: 30.26 inRising 0.02  inHg/hr Rising Slowly
  • Visibility: 10 miles
  • Rain Today: 0.00 in
  •   
Southeast Middlesex County - Special Weather Statement
 - SEE ALL NEARBY ALERTS -

Regional Weather Roundup
for Boston / Norton, MA

        
000
ASUS41 KBOX 170904
RWRBOX

REGIONAL WEATHER ROUNDUP
NATIONAL WEATHER SERVICE BOSTON/NORTON MA
500 AM EDT THU SEP 17 2020

NOTE:  "FAIR" INDICATES FEW OR NO CLOUDS BELOW 12,000 FEET WITH NO 
SIGNIFICANT WEATHER AND/OR OBSTRUCTIONS TO VISIBILITY.

MAZALL-171000-
EASTERN MASSACHUSETTS
  
CITY           SKY/WX    TMP DP  RH WIND       PRES   REMARKS
BOSTON         PTCLDY    60  57  89 SW10      30.04F                  
BEVERLY        CLEAR     60  56  86 SW7       30.03S                  
LAWRENCE       CLEAR     58  56  93 S9        30.04F                  
BEDFORD        CLEAR     59  55  87 S8        30.02F                  
BLUE HILL        N/A     58  57  97 SW12      30.04S                  
NORWOOD        PTCLDY    51  49  92 CALM      30.05S FOG              
MARSHFIELD     PTCLDY    59  59 100 CALM      30.05S                  
PLYMOUTH       PTCLDY    63  61  93 SW6       30.05S                  
TAUNTON        CLEAR     65  61  87 SW5       30.05S                  
NEW BEDFORD    PTCLDY    65  61  87 SW8       30.05S                  
$$

MAZALL-171000-
CAPE COD AND THE ISLANDS
  
CITY           SKY/WX    TMP DP  RH WIND       PRES   REMARKS
FALMOUTH       PTCLDY    50  63 100 SW15      30.06S                  
HYANNIS        MOCLDY    67  62  84 SW13      30.05S                  
CHATHAM        CLEAR     66  63  90 SW8       30.07F                  
PROVINCETOWN   CLOUDY    64  63  96 SW9       30.06S                  
NANTUCKET      CLEAR     66  63  90 S8        30.07F                  
MARTHAS VNYRD  MOCLDY    66  62  87 W7        30.07S                  
$$
 
MAZALL-171000-
CENTRAL AND WESTERN MASSACHUSETTS
  
CITY           SKY/WX    TMP DP  RH WIND       PRES   REMARKS
WORCESTER      CLEAR     57  53  86 SW12      30.04F                  
FITCHBURG      CLEAR     61  53  75 SW6       30.03S                  
ORANGE         CLEAR     49  48  97 CALM      30.05S                  
SPRINGFIELD    CLEAR     55  54  96 S5        30.03F                  
WESTFIELD      CLEAR     51  51 100 CALM      30.04S                  
NORTH ADAMS    CLEAR     49  47  93 CALM      30.04S                  
PITTSFIELD     CLEAR     55  51  86 W3        30.04S                  
$$
 
RIZALL-171000-
RHODE ISLAND
  
CITY           SKY/WX    TMP DP  RH WIND       PRES   REMARKS
PROVIDENCE     CLEAR     60  60 100 CALM      30.06S                  
NEWPORT        CLEAR     66  60  81 VRB5      30.06S                  
BLOCK ISLAND   MOCLDY    65  59  81 W7        30.07F                  
SMITHFIELD     CLEAR     59  59 100 CALM      30.06F                  
WESTERLY       PTCLDY    65  55  70 CALM      30.07S                  
$$
 
CTZALL-171000-
CONNECTICUT
  
CITY           SKY/WX    TMP DP  RH WIND       PRES   REMARKS
BRADLEY INTL   MOCLDY    55  53  93 S5        30.05S                  
HARTFORD       CLEAR     58  55  90 S3        30.05F                  
BRIDGEPORT     PTCLDY    62  57  83 CALM      30.06F                  
DANBURY        CLEAR     50  50 100 CALM      30.08S                  
GROTON         PTCLDY    64  55  72 W5        30.05F                  
NEW HAVEN      PTCLDY    65  59  81 CALM      30.06S                  
CHESTER        NOT AVBL                                               
MERIDEN        PTCLDY    54  53  97 CALM      30.06F                  
WILLIMANTIC    PTCLDY    51  49  92 CALM      30.07S                  
OXFORD         CLEAR     57  56  96 W3        30.07F                  
$$

MEZ002-015-021-024-NHZ003-005-008-011-012-014-VTZ005-008-171000-
NORTHERN NEW ENGLAND
  
CITY           SKY/WX    TMP DP  RH WIND       PRES   REMARKS
PORTLAND ME    CLEAR     59  55  87 SW7       29.99S                  
BANGOR ME      CLEAR     58  53  84 S12       29.95R                  
CONCORD NH     CLEAR     53  50  89 S3        30.01S                  
MANCHESTER NH  CLEAR     58  53  84 S8        30.00S                  
NASHUA NH      CLEAR     55  55 100 CALM      30.02F                  
PORTSMOUTH NH  PTCLDY    58  53  84 SW8       29.99F                  
JAFFREY NH     CLEAR     56  53  90 SW9       30.03S                  
KEENE NH       FOG       47  47 100 CALM      30.03F VSB 1/2          
BURLINGTON VT  CLOUDY    61  49  64 S13G20    29.96R                  
MT. WASHINGTON FOG       39  39 100 W47         N/A  VSB 1/8 WCI  25  
$$

NYZ052-076-171000-
EASTERN NEW YORK
  
CITY           SKY/WX    TMP DP  RH WIND       PRES   REMARKS
ALBANY         MOCLDY    52  52 100 S5        30.03S                  
NEW YORK CITY  CLOUDY    67  58  72 S6        30.05F                  
$$
 
ANZALL-171000-
MARINE OBSERVATIONS
  
STATION/POSITION TIME  TEMP    WIND        PRES    VSBY  WAVE
                       AIR SEA DIR/SP/G                  HT/PER
                 (UTC) (F)     (DEG/KT/KT) (MB)    (MI)  (FT/S)
BOSTON BUOY      0850   63 64  190/ 10/ 12 1016.3F         2/12
BUZZARDS BAY     0800          240/ 20/ 22 1018.9F
NANTUCKET SOUND  0850      69  230/ 14/ 17   N/A           1/ 3
MASS BAY-STELLWA 0804   63     240/ 14/ 16 1015.2F  1 7/8  2/ 4
ISLE OF SHOALS   0800   61     220/ 20/ 21 1015.8F
S OF BLOCK IS    0826      70                N/A           5/11
$$

......................KEY.........................
  SKY/WX - SKY CONDITION/PRESENT WEATHER
  TMP    - TEMPERATURE IN FAHRENHEIT
  DWPT   - DEWPOINT IN FAHRENHEIT
  RH     - RELATIVE HUMIDITY IN PERCENT
  WIND   - DIRECTION AND SPEED IN MPH
  PRES   - MEAN SEA LEVEL PRESSURE IN INCHES OF HG
  WCI    - WIND CHILL INDEX
  VSB    - VISIBILITY IN MILES
  HX     - HEAT INDEX
  TC     - TEMPERATURE IN CELSIUS
  VRB    - VARIABLE WIND DIRECTION
  N/A    - NOT AVAILABLE
  
      

Other recent Regional Weather Roundups

Sat Sep 19, 8:04am

Sat Sep 19, 7:04am

Sat Sep 19, 6:04am

Sat Sep 19, 5:04am

Sat Sep 19, 4:04am

Sat Sep 19, 3:04am

Sat Sep 19, 2:04am

Sat Sep 19, 1:04am

Sat Sep 19, 12:04am

Fri Sep 18, 11:05pm

Fri Sep 18, 10:04pm

Fri Sep 18, 9:04pm

Fri Sep 18, 8:04pm

Fri Sep 18, 7:04pm

Fri Sep 18, 6:04pm

Fri Sep 18, 5:05pm

Fri Sep 18, 4:04pm

Fri Sep 18, 3:05pm

Fri Sep 18, 2:04pm

Fri Sep 18, 1:04pm

Fri Sep 18, 12:04pm

Fri Sep 18, 11:05am

Fri Sep 18, 10:05am

Fri Sep 18, 9:04am

Fri Sep 18, 8:04am

Fri Sep 18, 7:04am

Fri Sep 18, 6:04am

Fri Sep 18, 5:04am

Fri Sep 18, 4:04am

Fri Sep 18, 3:04am

Fri Sep 18, 2:04am

Fri Sep 18, 1:04am

Fri Sep 18, 12:04am

Thu Sep 17, 11:05pm

Thu Sep 17, 10:04pm

Thu Sep 17, 9:04pm

Thu Sep 17, 8:05pm

Thu Sep 17, 7:04pm

Thu Sep 17, 6:04pm

Thu Sep 17, 5:04pm

Thu Sep 17, 4:04pm

Thu Sep 17, 3:05pm

Thu Sep 17, 2:04pm

Thu Sep 17, 1:04pm

Thu Sep 17, 12:04pm

Thu Sep 17, 11:04am

Thu Sep 17, 10:04am

Thu Sep 17, 9:04am

Thu Sep 17, 8:04am

Thu Sep 17, 7:04am

Thu Sep 17, 6:04am

Thu Sep 17, 4:04am

Thu Sep 17, 3:04am

Thu Sep 17, 2:05am

Thu Sep 17, 1:05am

Thu Sep 17, 12:04am

Wed Sep 16, 11:04pm

Wed Sep 16, 10:04pm

Wed Sep 16, 9:04pm

Wed Sep 16, 8:05pm

Wed Sep 16, 7:04pm

Wed Sep 16, 6:04pm

Wed Sep 16, 5:04pm

Wed Sep 16, 4:04pm

Wed Sep 16, 3:04pm

Wed Sep 16, 2:04pm

Wed Sep 16, 1:04pm

Wed Sep 16, 12:04pm

Wed Sep 16, 11:04am

Wed Sep 16, 10:04am

Wed Sep 16, 9:04am

Wed Sep 16, 8:04am

Wed Sep 16, 7:04am

Wed Sep 16, 6:04am

Wed Sep 16, 5:04am

Wed Sep 16, 4:04am

Wed Sep 16, 3:04am

Wed Sep 16, 2:04am

Wed Sep 16, 1:04am

Wed Sep 16, 12:05am

Tue Sep 15, 11:04pm

Tue Sep 15, 10:04pm

Tue Sep 15, 9:04pm

Tue Sep 15, 8:04pm

Tue Sep 15, 7:04pm

Tue Sep 15, 6:04pm

Tue Sep 15, 5:04pm

Tue Sep 15, 4:05pm

Tue Sep 15, 3:04pm

Tue Sep 15, 2:04pm

Tue Sep 15, 1:04pm

Tue Sep 15, 12:04pm

Tue Sep 15, 11:04am

Tue Sep 15, 10:04am

Tue Sep 15, 9:04am

Tue Sep 15, 8:04am

Tue Sep 15, 7:04am

Tue Sep 15, 6:04am

Tue Sep 15, 5:04am

Tue Sep 15, 4:04am

Tue Sep 15, 3:04am

Tue Sep 15, 2:04am

Tue Sep 15, 1:04am

Tue Sep 15, 12:05am

Mon Sep 14, 11:04pm

Mon Sep 14, 10:04pm

Mon Sep 14, 9:04pm

Mon Sep 14, 8:04pm

Mon Sep 14, 7:04pm

Mon Sep 14, 6:04pm

Mon Sep 14, 5:04pm

Mon Sep 14, 4:05pm

Mon Sep 14, 3:04pm

Mon Sep 14, 2:05pm

Mon Sep 14, 1:04pm

Mon Sep 14, 12:04pm

Mon Sep 14, 11:04am

Mon Sep 14, 10:05am

Mon Sep 14, 9:04am

Mon Sep 14, 8:04am

Mon Sep 14, 7:04am

Mon Sep 14, 6:04am

Mon Sep 14, 5:04am

Mon Sep 14, 4:04am

Mon Sep 14, 3:04am

Mon Sep 14, 2:04am

Mon Sep 14, 1:04am

Mon Sep 14, 12:04am

Sun Sep 13, 11:05pm

Sun Sep 13, 10:04pm

Sun Sep 13, 9:04pm

Sun Sep 13, 8:04pm

Sun Sep 13, 7:05pm

Sun Sep 13, 6:05pm

Sun Sep 13, 5:05pm

Sun Sep 13, 4:04pm

Sun Sep 13, 3:04pm

Sun Sep 13, 2:04pm

Sun Sep 13, 1:04pm

Sun Sep 13, 12:04pm

Sun Sep 13, 11:05am

Sun Sep 13, 10:04am

Sun Sep 13, 9:04am

Sun Sep 13, 8:04am

Sun Sep 13, 7:04am

Sun Sep 13, 6:04am

Sun Sep 13, 5:04am

Sun Sep 13, 4:04am

Sun Sep 13, 3:04am

Sun Sep 13, 2:04am

Sun Sep 13, 1:04am

Sun Sep 13, 12:04am

Sat Sep 12, 11:04pm

Sat Sep 12, 10:04pm

Sat Sep 12, 9:04pm

Sat Sep 12, 8:04pm

Sat Sep 12, 7:05pm

Sat Sep 12, 6:04pm

Sat Sep 12, 5:04pm

Sat Sep 12, 4:05pm

Sat Sep 12, 3:04pm

Sat Sep 12, 2:04pm

Sat Sep 12, 1:05pm

Sat Sep 12, 12:04pm

Sat Sep 12, 11:04am

Sat Sep 12, 10:04am

Sat Sep 12, 9:04am

Meta data:

ID: 4bd5cdb9-478e-4ee8-85c9-eaeb827bf253
Link: https://api.weather.gov/products/4bd5cdb9-478e-4ee8-85c9-eaeb827bf253